Hourly Data Report for October 25, 2013

All times are specified in Local Standard Time (LST). Add 1 hour to adjust for Daylight Saving Time where and when it is observed.

KAMLOOPS A
BRITISH COLUMBIA

50°42'09.000" N
120°26'55.000" W
345.30 m
1163781
71887
YKA

Download Data

Hourly Data (October 2013)
Hourly Data Report for October 25, 2013
Temp Definition
°C
Dew Point Temp Definition
°C
Rel Hum Definition
%
Wind Dir Definition
10's deg

Wind Spd Definition
km/h
Visibility Definition
km
Stn Press Definition
kPa
Hmdx Definition


Wind Chill Definition


Weather Definition


TIME
00:00 Legend Double Dagger 6.6 4.3 85 28 8 32.2 98.21     LegendNANA
01:00 Legend Double Dagger 6.5 3.8 83 24 9 16.1 98.27     Cloudy
02:00 Legend Double Dagger 6.1 3.8 85 28 7 16.1 98.32     LegendNANA
03:00 Legend Double Dagger 6.0 3.7 85 33 8 11.3 98.35     Drizzle
04:00 Legend Double Dagger 5.7 3.6 86 32 7 12.9 98.36     Cloudy
05:00 Legend Double Dagger 5.4 3.7 89 30 6 12.9 98.41     Drizzle
06:00 Legend Double Dagger 5.3 3.3 87 29 6 16.1 98.46     Drizzle
07:00 Legend Double Dagger 5.2 3.1 86 27 9 16.1 98.50     Cloudy
08:00 Legend Double Dagger 5.2 3.2 87 17 9 16.1 98.57     Drizzle
09:00 Legend Double Dagger 5.4 3.1 85 13 7 16.1 98.60     Drizzle
10:00 Legend Double Dagger 5.8 3.2 83 9 6 24.1 98.61     Drizzle
11:00 Legend Double Dagger 5.9 2.7 80 36 6 32.2 98.61     Drizzle
12:00 Legend Double Dagger 6.1 2.7 79 32 1 32.2 98.60     Drizzle
13:00 Legend Double Dagger 6.7 2.8 76 15 4 64.4 98.56     Cloudy
14:00 Legend Double Dagger 7.1 3.4 77 32 6 32.2 98.50     LegendNANA
15:00 Legend Double Dagger 6.8 3.3 78 7 5 32.2 98.48     LegendNANA
16:00 Legend Double Dagger 6.5 3.0 78 13 6 32.2 98.49     Cloudy
17:00 Legend Double Dagger 6.5 3.3 80 8 5 32.2 98.49     LegendNANA
18:00 Legend Double Dagger 6.3 3.5 82 11 3 32.2 98.52     LegendNANA
19:00 Legend Double Dagger 6.4 3.6 82 9 5 32.2 98.57     Cloudy
20:00 Legend Double Dagger 6.4 3.7 83 10 5 32.2 98.56     LegendNANA
21:00 Legend Double Dagger 5.8 3.0 82 36 10 32.2 98.67     LegendNANA
22:00 Legend Double Dagger 5.9 3.2 83 35 2 32.2 98.67     Cloudy
23:00 Legend Double Dagger 5.8 3.2 83 8 1 24.1 98.70     LegendNANA

Notes on Data Quality.

Legend

  • E = Estimated
  • M = Missing
  • NA = Not Available
  • ‡ = Partner data that is not subject to review by the National Climate Archives
Date modified: